MAYA-3 (49273 NORAD) Tracking and Keplerian Element Data

This shows tracking and keplerian element data for the satellite.

Feedback or suggestion? Click here.




ElementValue
Catalog49273
NameMAYA-3
Epoch Orbit4363
Epoch Day193.09428822
Epoch Year2022
RAAN188.5988
Inclination51.6251
Eccentricity0.0008889
Argument of Perigee39.9925
Mean Anonmoly320.1734
Mean Motion15.90418844
Decay Rate0.00371305
L11 49273U 98067SS 22193.09428822 .00371305 62516-4 11895-2 0 9996
L22 49273 51.6251 188.5988 0008889 39.9925 320.1734 15.90418844 43634



Live tracking and technical data element details for MAYA-3 (NORAD 49273). MAYA-3 can be tracked NOW for your location showing map with azimuth and elevation plus other details from your city location.







IsCatalogInMostPopularTable: catalog: 49273, numindb: 98
Update: records affected: 1



GetName: 49273 MAYA-3

Hit Count: updated at: Thu, 23 Jan 2025 18:02:56 GMT